Ahmedabad, India

10:20 PM IST on October 19, 2017 (GMT +0530)
Ahmedabad

Weather History for VAAH - October, 2013

Change the Weather History Date:

Tuesday, October 29, 2013

  Actual Average Record
Temperature  
Mean Temperature 78 °F -  
Max Temperature 92 °F 88 °F 98 °F (2001)
Min Temperature 65 °F 61 °F 62 °F (2005)
Cooling Degree Days 14    
Growing Degree Days 28 (Base 50)    
Moisture  
Dew Point 63 °F    
Average Humidity 63    
Maximum Humidity 94    
Minimum Humidity 22    
Precipitation  
Precipitation 0.00 in 0.02 in - ()
Sea Level Pressure  
Sea Level Pressure 29.88 in    
Wind  
Wind Speed 2 mph ()    
Max Wind Speed 6 mph    
Max Gust Speed -    
Visibility 2.4 miles    
Events      
Averages and records for this station are not official NWS values.
T = Trace of Precipitation, MM = Missing Value Source: Averaged Metar Reports

Daily Weather History Graph

Daily Weather History Graph

Search for Another Location

Airport or City:

Trip Planner

Search our weather history database for the weather conditions in past years. The results will help you decide how hot, cold, wet, or windy it might be!

Date:

Astronomy

Oct. 29, 2013 Rise Set
Actual Time 6:42 AM IST 6:03 PM IST
Civil Twilight 6:19 AM IST 6:26 PM IST
Nautical Twilight 5:53 AM IST 6:52 PM IST
Astronomical Twilight 5:26 AM IST 7:19 PM IST
Moon 1:43 AM IST (10/29) 2:30 PM IST (10/29)
Length of Visible Light 12h 06m
Length of Day
11h 20m
Waning Crescent, 29% of the Moon is Illuminated
Oct 29
Waning Crescent
Nov 3
New
Nov 10
First Quarter
Nov 17
Full
Nov 26
Last Quarter

Hourly Weather History & Observations

Time (IST) Temp. Heat Index Dew Point Humidity Pressure Visibility Wind Dir Wind Speed Gust Speed Precip Events Conditions
12:10 AM 71.6 °F - 66.2 °F 83% 29.89 in 2.5 mi Calm Calm - N/A   Haze
12:40 AM 71.6 °F - 64.4 °F 78% 29.86 in 2.5 mi Calm Calm - N/A   Haze
1:10 AM 69.8 °F - 66.2 °F 88% 29.86 in 2.5 mi North 2.3 mph - N/A   Haze
1:40 AM 69.8 °F - 66.2 °F 88% 29.86 in 2.5 mi Calm Calm - N/A   Haze
2:10 AM 69.8 °F - 66.2 °F 88% 29.86 in 2.5 mi Calm Calm - N/A   Haze
2:30 AM 69 °F - 65 °F 84% 29.86 in 1 mi Calm Calm - -   Mist
2:40 AM 69.8 °F - 66.2 °F 88% 29.86 in 2.5 mi Calm Calm - N/A   Haze
3:10 AM 69.8 °F - 66.2 °F 88% 29.86 in 2.5 mi Calm Calm - N/A   Haze
3:40 AM 69.8 °F - 64.4 °F 83% 29.86 in 2.2 mi NNE 4.6 mph - N/A   Haze
4:40 AM 68.0 °F - 62.6 °F 83% 29.86 in 1.9 mi North 3.5 mph - N/A   Haze
5:10 AM 66.2 °F - 64.4 °F 94% 29.86 in 1.6 mi North 3.5 mph - N/A   Haze
5:30 AM 67 °F - 63 °F 83% 29.87 in 1 mi Calm Calm - -   Mist
6:10 AM 66.2 °F - 62.6 °F 88% 29.89 in 1.2 mi NNE 3.5 mph - N/A   Mist
6:40 AM 64.4 °F - 62.6 °F 94% 29.89 in 1.2 mi North 4.6 mph - N/A   Mist
7:10 AM 64.4 °F - 62.6 °F 94% 29.92 in 1.2 mi West 4.6 mph - N/A   Mist
8:10 AM 69.8 °F - 66.2 °F 88% 29.95 in 0.9 mi NW 3.5 mph - N/A   Mist
8:30 AM 72 °F - 65 °F 72% 29.94 in 1 mi Calm Calm - -   Mist
8:40 AM 71.6 °F - 66.2 °F 83% 29.95 in 0.9 mi NNW 3.5 mph - N/A   Mist
9:10 AM 75.2 °F - 66.2 °F 73% 29.95 in 0.9 mi Calm Calm - N/A   Mist
10:40 AM 84.2 °F 85.6 °F 64.4 °F 51% 29.95 in 2.5 mi NNE 3.5 mph - N/A   Smoke
11:40 AM 87.8 °F 90.4 °F 66.2 °F 49% 29.92 in 3.1 mi North 4.6 mph - N/A   Smoke
12:10 PM 89.6 °F 90.1 °F 62.6 °F 40% 29.92 in 3.7 mi NNE 4.6 mph - N/A   Unknown
12:40 PM 89.6 °F 91.1 °F 64.4 °F 43% 29.89 in 3.7 mi North 3.5 mph - N/A   Unknown
1:10 PM 91.4 °F 93.2 °F 64.4 °F 41% 29.86 in 3.7 mi NNW 5.8 mph - N/A   Unknown
1:40 PM 91.4 °F 92.1 °F 62.6 °F 38% 29.86 in 3.7 mi North 2.3 mph - N/A   Unknown
2:10 PM 93.2 °F 94.1 °F 62.6 °F 36% 29.83 in 3.7 mi Variable 2.3 mph - N/A   Unknown
2:30 PM 90 °F - 56 °F 22% 29.86 in 2 mi Calm Calm - -  
2:40 PM 91.4 °F 91.4 °F 60.8 °F 36% 29.83 in 3.7 mi NNW 3.5 mph - N/A   Unknown
3:10 PM 93.2 °F 91.9 °F 57.2 °F 30% 29.83 in 3.7 mi North 2.3 mph - N/A   Unknown
3:40 PM 91.4 °F 90.7 °F 59.0 °F 34% 29.83 in 3.7 mi NNE 4.6 mph - N/A   Unknown
4:10 PM 91.4 °F 90.7 °F 59.0 °F 34% 29.83 in 3.7 mi North 3.5 mph - N/A   Unknown
4:40 PM 89.6 °F 89.5 °F 60.8 °F 38% 29.83 in 3.7 mi North 3.5 mph - N/A   Unknown
5:10 PM 87.8 °F 87.1 °F 59.0 °F 38% 29.83 in 3.7 mi North 3.5 mph - N/A   Unknown
5:30 PM 86 °F - 66 °F 41% 29.85 in 2 mi Calm Calm - -  
6:10 PM 84.2 °F 84.4 °F 60.8 °F 45% 29.86 in 2.5 mi Calm Calm - N/A   Smoke
6:40 PM 80.6 °F 81.5 °F 60.8 °F 51% 29.86 in 2.5 mi Calm Calm - N/A   Smoke
7:10 PM 80.6 °F 81.5 °F 60.8 °F 51% 29.86 in 2.5 mi Variable 2.3 mph - N/A   Smoke
7:40 PM 80.6 °F 81.5 °F 60.8 °F 51% 29.89 in 2.5 mi Calm Calm - N/A   Smoke
8:10 PM 77.0 °F - 62.6 °F 61% 29.89 in 2.5 mi North 2.3 mph - N/A   Smoke
8:30 PM 75 °F - 65 °F 63% 29.90 in 2 mi Calm Calm - -   Haze
8:40 PM 77.0 °F - 62.6 °F 61% 29.92 in 2.5 mi Calm Calm - N/A   Haze
9:10 PM 77.0 °F - 60.8 °F 57% 29.92 in 2.5 mi East 2.3 mph - N/A   Haze
9:40 PM 75.2 °F - 60.8 °F 61% 29.92 in 2.5 mi Calm Calm - N/A   Haze
10:10 PM 75.2 °F - 62.6 °F 65% 29.92 in 2.5 mi North 2.3 mph - N/A   Haze
10:40 PM 73.4 °F - 64.4 °F 73% 29.92 in 2.5 mi Calm Calm - N/A   Haze
11:10 PM 73.4 °F - 64.4 °F 73% 29.92 in 2.5 mi Calm Calm - N/A   Haze
11:30 PM 72 °F - 64 °F 68% 29.91 in 2 mi Calm Calm - -   Haze
11:40 PM 73.4 °F - 64.4 °F 73% 29.92 in 2.5 mi North 2.3 mph - N/A   Haze